Location: Bakov nad Jizerou
(50.4784°N, 14.9394°E)
Time: 17:03:18
(UTC+00:00)

Cosmos 2322 - Pass Details

Date: 23 October 2021
Orbit: 841 x 854 km, 71.0° (Epoch: 04 December)

Event Time Altitude Azimuth Distance (km) Brightness Sun altitude
Exits shadow 02:18:44 - 341° (NNW) 2,780 6.4 -31.6°
Reaches altitude 10° 02:19:42 10° 346° (NNW) 2,491 6.2 -31.4°
Maximum altitude 02:24:16 24° 39° (NE) 1,702 5.8 -30.8°
Drops below altitude 10° 02:28:48 10° 93° (E) 2,475 6.9 -30.1°
Sets 02:31:44 0° 107° (ESE) 3,405 7.6 -29.7°
